Tracking 35334 objects as of 13-Sep-2026
HD Live streaming from Space Station
objects crossing your sky now

BLACKJACK ACES-2

Track BLACKJACK ACES-2 now!
10-day predictions
BLACKJACK ACES-2 is classified as:


NORAD ID: 56955
Int'l Code: 2023-084Z
Launch date: June 12, 2023
Source: United States (US)
Launch site: AIR FORCE WESTERN TEST RANGE (AFWTR)

Uplink (MHz):
Downlink (MHz): 2264.800
Beacon (MHz):
Mode: 300k BPSK
Call sign:
Status: Unknown

Your satellite tracking list
Your tracking list is empty




NASA's NSSDC Master Catalog

Two Line Element Set (TLE):
1 56955U 23084Z   26256.13122600  .00005174  00000-0  25227-3 0  9991
2 56955  97.6332  32.1710 0001939  68.4833 291.6607 15.18770709180522
Source of the keplerian elements: AFSPC